When you browse on this site, cookies collect data to enhance your experience and personalize the content and advertising you see.
Visit our Privacy Policy to learn more. By continuing to use the site, you agree to this use of cookies and data.
  • In Czech Republic
  • List of Countries
  • For 7 days
  • Water Temperature
  • Satellite Maps
  • Weather Map
  • Weather Widgets
  • user-avatar
    Login

    Hourly Weather Adelaide

    Today, 17 November, Saturday

    Time Temperature Precipitation Wind Pressure Humidity
    00:00 +12°C° 0 mm 4 mps 763 mmHg 80%
    01:00 +11°C° 0 mm 4 mps 763 mmHg 79%
    02:00 +11°C° 0 mm 4 mps 763 mmHg 79%
    03:00 +11°C° 0 mm 4 mps 763 mmHg 78%
    04:00 +11°C° 0 mm 4 mps 763 mmHg 73%
    05:00 +12°C° 0 mm 5 mps 763 mmHg 69%
    06:00 +12°C° 0 mm 5 mps 763 mmHg 64%
    07:00 +14°C° 0 mm 5 mps 763 mmHg 53%
    08:00 +17°C° 0 mm 5 mps 763 mmHg 42%
    09:00 +20°C° 0 mm 5 mps 764 mmHg 32%
    10:00 +21°C° 0 mm 5 mps 763 mmHg 29%
    11:00 +23°C° 0 mm 5 mps 763 mmHg 26%
    12:00 +25°C° 0 mm 5 mps 762 mmHg 22%
    13:00 +26°C° 0 mm 5 mps 762 mmHg 23%
    14:00 +26°C° 0 mm 5 mps 761 mmHg 24%
    15:00 +26°C° 0 mm 6 mps 760 mmHg 25%
    16:00 +24°C° 0 mm 6 mps 760 mmHg 34%
    17:00 +22°C° 0 mm 6 mps 760 mmHg 43%
    18:00 +20°C° 0 mm 6 mps 760 mmHg 53%
    19:00 +19°C° 0 mm 6 mps 761 mmHg 60%
    20:00 +16°C° 0 mm 6 mps 761 mmHg 67%
    21:00 +15°C° 0 mm 6 mps 761 mmHg 74%
    22:00 +15°C° 0 mm 5 mps 761 mmHg 71%
    23:00 +15°C° 0 mm 5 mps 761 mmHg 68%

    Tomorrow, 18 November, Sunday

    Time Temperature Precipitation Wind Pressure Humidity
    00:00 +15°C° 0 mm 4 mps 760 mmHg 65%
    01:00 +15°C° 0 mm 5 mps 760 mmHg 61%
    02:00 +15°C° 0 mm 5 mps 759 mmHg 57%
    03:00 +15°C° 0 mm 5 mps 759 mmHg 53%
    04:00 +15°C° 0 mm 5 mps 759 mmHg 49%
    05:00 +16°C° 0 mm 5 mps 759 mmHg 46%
    06:00 +17°C° 0 mm 5 mps 759 mmHg 42%
    07:00 +20°C° 0 mm 5 mps 759 mmHg 36%
    08:00 +23°C° 0 mm 4 mps 759 mmHg 29%
    09:00 +27°C° 0 mm 4 mps 759 mmHg 23%
    10:00 +28°C° 0 mm 4 mps 758 mmHg 20%
    11:00 +30°C° 0 mm 4 mps 758 mmHg 18%
    12:00 +31°C° 0 mm 3 mps 757 mmHg 16%
    13:00 +33°C° 0 mm 3 mps 756 mmHg 15%
    14:00 +33°C° 0 mm 3 mps 756 mmHg 15%
    15:00 +34°C° 0 mm 2 mps 755 mmHg 14%
    16:00 +31°C° 0 mm 2 mps 755 mmHg 17%
    17:00 +30°C° 0 mm 3 mps 755 mmHg 19%
    18:00 +28°C° 0 mm 3 mps 754 mmHg 21%
    19:00 +27°C° 0 mm 3 mps 754 mmHg 21%
    20:00 +25°C° 0 mm 3 mps 754 mmHg 22%
    21:00 +23°C° 0 mm 4 mps 755 mmHg 22%
    22:00 +23°C° 0 mm 4 mps 754 mmHg 21%
    23:00 +23°C° 0 mm 4 mps 754 mmHg 20%

    Day after tomorrow, 19 November, Monday

    Time Temperature Precipitation Wind Pressure Humidity
    00:00 +23°C° 0 mm 5 mps 753 mmHg 19%
    01:00 +23°C° 0 mm 5 mps 753 mmHg 20%
    02:00 +23°C° 0 mm 5 mps 752 mmHg 22%
    03:00 +22°C° 0 mm 5 mps 752 mmHg 23%
    04:00 +25°C° 0 mm 5 mps 752 mmHg 21%
    05:00 +26°C° 0 mm 6 mps 752 mmHg 19%
    06:00 +27°C° 0 mm 6 mps 753 mmHg 18%
    07:00 +28°C° 0 mm 6 mps 753 mmHg 17%
    08:00 +30°C° 0 mm 6 mps 753 mmHg 16%
    09:00 +32°C° 0 mm 6 mps 753 mmHg 15%
    10:00 +32°C° 0 mm 6 mps 752 mmHg 16%
    11:00 +33°C° 0 mm 5 mps 752 mmHg 17%
    12:00 +33°C° 0 mm 5 mps 751 mmHg 19%
    13:00 +33°C° 0 mm 5 mps 751 mmHg 18%
    14:00 +34°C° 0 mm 6 mps 750 mmHg 16%
    15:00 +35°C° 0 mm 7 mps 750 mmHg 15%
    16:00 +33°C° 0 mm 7 mps 750 mmHg 20%
    17:00 +32°C° 0 mm 7 mps 750 mmHg 25%
    18:00 +29°C° 0 mm 6 mps 751 mmHg 31%
    19:00 +27°C° 0.1 mm 5 mps 751 mmHg 41%
    20:00 +25°C° 0.1 mm 4 mps 751 mmHg 51%
    21:00 +22°C° 0.1 mm 3 mps 752 mmHg 61%
    22:00 +21°C° 0 mm 3 mps 752 mmHg 67%
    23:00 +21°C° 0 mm 4 mps 752 mmHg 73%

    20 November, Tuesday

    Time Temperature Precipitation Wind Pressure Humidity
    00:00 +20°C° 0 mm 4 mps 752 mmHg 79%
    01:00 +19°C° 0.1 mm 4 mps 752 mmHg 81%
    02:00 +17°C° 0.1 mm 5 mps 751 mmHg 83%
    03:00 +17°C° 0.1 mm 5 mps 751 mmHg 86%
    04:00 +16°C° 0.4 mm 5 mps 752 mmHg 85%
    05:00 +16°C° 0.4 mm 5 mps 752 mmHg 85%
    06:00 +17°C° 0.4 mm 4 mps 753 mmHg 85%
    07:00 +16°C° 0.2 mm 5 mps 753 mmHg 83%
    08:00 +16°C° 0.2 mm 5 mps 752 mmHg 80%
    09:00 +16°C° 0.2 mm 5 mps 752 mmHg 78%
    10:00 +16°C° 0 mm 5 mps 752 mmHg 73%
    11:00 +17°C° 0 mm 5 mps 752 mmHg 68%
    12:00 +19°C° 0 mm 5 mps 751 mmHg 63%
    13:00 +19°C° 0 mm 4 mps 751 mmHg 59%
    14:00 +19°C° 0 mm 4 mps 751 mmHg 56%
    15:00 +19°C° 0 mm 4 mps 751 mmHg 52%
    16:00 +19°C° 0 mm 4 mps 750 mmHg 52%
    17:00 +18°C° 0 mm 4 mps 750 mmHg 51%
    18:00 +17°C° 0 mm 4 mps 750 mmHg 50%
    19:00 +15°C° 0 mm 4 mps 750 mmHg 56%
    20:00 +14°C° 0 mm 4 mps 750 mmHg 61%
    21:00 +13°C° 0 mm 3 mps 750 mmHg 66%
    22:00 +13°C° 0.1 mm 4 mps 750 mmHg 70%
    23:00 +13°C° 0.1 mm 5 mps 750 mmHg 74%

    21 November, Wednesday

    Time Temperature Precipitation Wind Pressure Humidity
    00:00 +12°C° 0.1 mm 5 mps 749 mmHg 78%
    01:00 +12°C° 0.2 mm 5 mps 749 mmHg 77%
    02:00 +12°C° 0.2 mm 5 mps 749 mmHg 76%
    03:00 +10°C° 0.2 mm 5 mps 749 mmHg 76%
    04:00 +11°C° 0.2 mm 6 mps 749 mmHg 72%
    05:00 +11°C° 0.2 mm 6 mps 749 mmHg 69%
    06:00 +11°C° 0.2 mm 7 mps 749 mmHg 66%
    07:00 +12°C° 0.3 mm 8 mps 749 mmHg 59%
    08:00 +13°C° 0.3 mm 9 mps 748 mmHg 52%
    09:00 +14°C° 0.3 mm 10 mps 748 mmHg 46%
    10:00 +14°C° 0.4 mm 10 mps 748 mmHg 44%
    11:00 +16°C° 0.4 mm 11 mps 747 mmHg 42%
    12:00 +16°C° 0.4 mm 11 mps 746 mmHg 40%
    13:00 +16°C° 0.3 mm 11 mps 746 mmHg 41%
    14:00 +15°C° 0.3 mm 12 mps 746 mmHg 42%
    15:00 +14°C° 0.3 mm 12 mps 746 mmHg 43%
    16:00 +13°C° 0.4 mm 11 mps 746 mmHg 48%
    17:00 +12°C° 0.4 mm 10 mps 747 mmHg 54%
    18:00 +11°C° 0.4 mm 9 mps 748 mmHg 59%
    19:00 +11°C° 0.2 mm 9 mps 748 mmHg 61%
    20:00 +10°C° 0.2 mm 8 mps 749 mmHg 63%
    21:00 +9°C° 0.2 mm 7 mps 750 mmHg 65%
    22:00 +9°C° 0.2 mm 7 mps 750 mmHg 66%
    23:00 +9°C° 0.2 mm 7 mps 750 mmHg 67%

    22 November, Thursday

    Time Temperature Precipitation Wind Pressure Humidity
    00:00 +9°C° 0.2 mm 7 mps 750 mmHg 68%
    01:00 +9°C° 0.3 mm 7 mps 750 mmHg 69%
    02:00 +9°C° 0.3 mm 7 mps 751 mmHg 70%
    03:00 +9°C° 0.3 mm 7 mps 751 mmHg 71%
    04:00 +10°C° 0 mm 7 mps 751 mmHg 68%
    05:00 +10°C° 0 mm 7 mps 752 mmHg 66%
    06:00 +11°C° 0 mm 7 mps 752 mmHg 63%
    07:00 +12°C° 0.2 mm 7 mps 753 mmHg 60%
    08:00 +13°C° 0.2 mm 8 mps 753 mmHg 58%
    09:00 +15°C° 0.2 mm 8 mps 753 mmHg 55%
    10:00 +15°C° 0.2 mm 8 mps 754 mmHg 52%
    11:00 +16°C° 0.2 mm 9 mps 754 mmHg 48%
    12:00 +16°C° 0.2 mm 9 mps 754 mmHg 45%
    13:00 +16°C° 0 mm 9 mps 754 mmHg 44%
    14:00 +16°C° 0 mm 9 mps 754 mmHg 43%
    15:00 +16°C° 0 mm 9 mps 754 mmHg 42%
    16:00 +15°C° 0 mm 8 mps 754 mmHg 45%
    17:00 +13°C° 0 mm 8 mps 754 mmHg 49%
    18:00 +14°C° 0 mm 7 mps 755 mmHg 52%
    19:00 +13°C° 0 mm 6 mps 755 mmHg 56%
    20:00 +11°C° 0 mm 6 mps 756 mmHg 60%
    21:00 +12°C° 0 mm 5 mps 756 mmHg 64%
    22:00 +10°C° 0 mm 5 mps 756 mmHg 65%
    23:00 +10°C° 0 mm 5 mps 756 mmHg 66%
    Show more